This demonstration page uses our WeatherBlox Daily Observations layout. Learn more.

Left ArrowRight Arrow

Hourly Observations for November 17, 2022

Temp ( °F °C ) Dew Point ( °F °C ) Humidity (%) Winds ( mph kmh ) Pressure ( in mb ) Visibility ( mi km ) Precip ( " mm )
12:55 am 00:55 Cloudy 28 -2.5 12 -11.3 51 51 Calm 30.33 1027 10 16 0.00 0.00
1:55 am 01:55 Mostly Cloudy 27 -2.7 13 -10.7 54 54 Calm 30.32 1027 10 16 0.00 0.00
2:55 am 02:55 Mostly Cloudy 28 -2.3 13 -10.8 52 52 W 3 6 30.31 1027 10 16 0.00 0.00
3:55 am 03:55 Partly Cloudy 27 -2.9 13 -10.5 56 56 W 6 9 30.30 1026 10 16 0.00 0.00
4:55 am 04:55 Mostly Cloudy 27 -2.6 15 -9.7 58 58 W 5 7 30.31 1026 10 16 0.00 0.00
5:55 am 05:55 Cloudy 29 -1.5 17 -8.1 61 61 W 9 15 30.30 1026 10 16 0.00 0.00
6:06 am 06:06 Cloudy with Light Snow 30 -1 18 -8 59 59 W 8 13 30.30 1026 10 16 0.00 0.00
6:28 am 06:28 Cloudy 30 -1 19 -7 64 64 W 8 13 30.31 1027 10 16 0.00 0.00
6:55 am 06:55 Mostly Cloudy 30 -1 21 -6.2 68 68 WNW 10 17 30.31 1026 10 16 0.01 0.13
7:55 am 07:55 Cloudy 31 -0.6 23 -5 72 72 WNW 8 13 30.32 1027 10 16 0.00 0.00
8:01 am 08:01 Cloudy with Light Snow 32 0 23 -5 69 69 WNW 8 13 30.34 1027 10 16 0.00 0.00
8:55 am 08:55 Cloudy 34 0.9 22 -5.4 63 63 NW 23 37 30.35 1028 10 16 0.01 0.13
9:55 am 09:55 Mostly Sunny 35 1.4 14 -9.8 43 43 NW 21 33 30.37 1029 10 16 0.00 0.00
10:55 am 10:55 Partly Cloudy 33 0.8 13 -10.7 42 42 NW 28 44 30.39 1029 10 16 0.00 0.00
11:55 am 11:55 Mostly Cloudy 35 1.7 11 -11.5 37 37 NW 24 39 30.38 1029 10 16 0.00 0.00
12:55 pm 12:55 Partly Cloudy 34 0.9 6 -14.3 31 31 NNW 28 44 30.39 1029 10 16 0.00 0.00
1:55 pm 13:55 Mostly Cloudy 33 0.4 6 -14.4 32 32 NW 26 43 30.38 1029 10 16 0.00 0.00
2:45 pm 14:45 Windy with Snow Likely 34 1 7 -14 31 31 NW 20 31 30.38 1029 10 16 0.00 0.00
2:55 pm 14:55 Cloudy with Light Snow 32 0 8 -13.3 36 36 NW 18 30 30.38 1029 10 16 0.01 0.13
3:55 pm 15:55 Cloudy 31 -0.7 6 -14.3 35 35 NW 17 28 30.39 1029 10 16 0.00 0.00
4:55 pm 16:55 Cloudy 29 -1.5 8 -13.4 40 40 NW 15 24 30.40 1030 10 16 0.00 0.00
5:55 pm 17:55 Cloudy 28 -2.2 9 -12.8 44 44 NW 18 30 30.41 1030 10 16 0.00 0.00
6:55 pm 18:55 Partly Cloudy 27 -3 7 -13.8 43 43 NW 18 30 30.42 1030 10 16 0.00 0.00
7:55 pm 19:55 Partly Cloudy 24 -4.5 8 -13.4 50 50 NW 13 20 30.45 1031 10 16 0.00 0.00
8:55 pm 20:55 Clear 22 -5.4 5 -15 47 47 NW 16 26 30.45 1031 10 16 0.00 0.00
9:55 pm 21:55 Clear 21 -6 6 -14.3 52 52 WNW 18 30 30.45 1031 10 16 0.00 0.00
10:55 pm 22:55 Mostly Cloudy 20 -6.7 6 -14.7 53 53 NW 16 26 30.48 1032 10 16 0.00 0.00
11:55 pm 23:55 Partly Cloudy 19 -7.4 5 -14.9 55 55 NW 16 26 30.48 1032 10 16 0.00 0.00

Powered by AerisWeather